Weather History for Morrisville, VT

Change the Weather History Date:

Sunday, November 3, 2013

  Actual Average Record
Temperature  
Mean Temperature 29 °F 40 °F  
Max Temperature 37 °F 49 °F 64 °F (1999)
Min Temperature 20 °F 30 °F 8 °F (2002)
Degree Days  
Heating Degree Days 36 25  
Month to date heating degree days 62 75  
Since 1 July heating degree days 879 1006  
Cooling Degree Days 0 0  
Month to date cooling degree days 0 0  
Year to date cooling degree days 401 265  
Moisture  
Dew Point 18 °F    
Average Humidity 65    
Maximum Humidity 89    
Minimum Humidity 40    
Precipitation  
Precipitation 0.00 in 0.10 in 0.17 in (1999)
Month to date precipitation 0.61 0.29  
Year to date precipitation 36.16 30.53  
Sea Level Pressure  
Sea Level Pressure 30.24 in    
Wind  
Wind Speed 5 mph (NNW)    
Max Wind Speed 15 mph    
Max Gust Speed 23 mph    
Visibility 10 miles    
Events      
T = Trace of Precipitation, MM = Missing Value Source: NWS Daily Summary

Daily Weather History Graph

Daily Weather History Graph

Search for Another Location

Airport:

Trip Planner

Search our weather history database for the weather conditions in past years. The results will help you decide how hot, cold, wet, or windy it might be!

Date:

Astronomy

Nov. 03, 2013 Rise Set
Actual Time 6:30 AM EST 4:36 PM EST
Civil Twilight 6:00 AM EST 5:06 PM EST
Nautical Twilight 5:25 AM EST 5:41 PM EST
Astronomical Twilight 4:51 AM EST 6:15 PM EST
Moon 6:32 AM EST (11/3) 4:48 PM EST (11/3)
Length of Visible Light 11h 06m
Length of Day
10h 05m
New Moon, 0% of the Moon is Illuminated
Nov 3
New Moon
Nov 10
First Quarter
Nov 17
Full
Nov 25
Last Quarter
Dec 2
New

Hourly Weather History & Observations

Time (EST) Temp. Windchill Dew Point Humidity Pressure Visibility Wind Dir Wind Speed Gust Speed Precip Events Conditions
12:54 AM 34.0 °F 28.0 °F 30.0 °F 85% 29.94 in 10.0 mi NNW 6.9 mph - N/A   Overcast
1:54 AM 33.1 °F 26.9 °F 27.0 °F 78% 29.97 in 10.0 mi North 6.9 mph - N/A   Overcast
1:54 AM 32.0 °F 24.8 °F 24.1 °F 73% 30.00 in 10.0 mi North 8.1 mph - N/A   Overcast
2:54 AM 30.9 °F 24.3 °F 21.9 °F 69% 30.03 in 10.0 mi North 6.9 mph - N/A   Overcast
3:47 AM 28.4 °F 22.2 °F 21.2 °F 74% 30.04 in 10.0 mi North 5.8 mph - N/A   Scattered Clouds
3:54 AM 28.9 °F 21.9 °F 21.0 °F 72% 30.06 in 10.0 mi North 6.9 mph - N/A   Partly Cloudy
4:54 AM 28.0 °F 22.8 °F 19.9 °F 72% 30.11 in 10.0 mi North 4.6 mph - N/A   Clear
5:54 AM 28.0 °F 20.8 °F 19.0 °F 69% 30.14 in 10.0 mi NNW 6.9 mph - N/A   Clear
6:54 AM 27.0 °F 20.5 °F 18.0 °F 69% 30.18 in 10.0 mi NNW 5.8 mph - N/A   Clear
7:54 AM 30.0 °F 22.4 °F 18.0 °F 61% 30.21 in 10.0 mi NNW 8.1 mph - N/A   Clear
8:54 AM 30.9 °F 25.2 °F 19.9 °F 64% 30.23 in 10.0 mi North 5.8 mph - N/A   Clear
9:54 AM 32.0 °F 23.6 °F 19.0 °F 59% 30.24 in 10.0 mi NNW 10.4 mph - N/A   Clear
10:54 AM 35.1 °F 30.1 °F 16.0 °F 46% 30.25 in 10.0 mi NNW 5.8 mph 19.6 mph N/A   Partly Cloudy
11:54 AM 34.0 °F 26.6 °F 15.1 °F 46% 30.25 in 10.0 mi NNW 9.2 mph 18.4 mph N/A   Clear
12:54 PM 36.0 °F 29.6 °F 14.0 °F 41% 30.26 in 10.0 mi NNW 8.1 mph 18.4 mph N/A   Clear
1:54 PM 36.0 °F 28.0 °F 14.0 °F 41% 30.29 in 10.0 mi NNW 11.5 mph 17.3 mph N/A   Clear
2:54 PM 35.1 °F 27.9 °F 15.1 °F 44% 30.31 in 10.0 mi NNW 9.2 mph 17.3 mph N/A   Clear
3:54 PM 33.1 °F 26.1 °F 14.0 °F 46% 30.34 in 10.0 mi NNW 8.1 mph - N/A   Clear
4:54 PM 32.0 °F 25.6 °F 14.0 °F 48% 30.37 in 10.0 mi NNW 6.9 mph - N/A   Clear
5:54 PM 30.0 °F - 14.0 °F 51% 30.40 in 10.0 mi Calm Calm - N/A   Clear
6:54 PM 27.0 °F - 16.0 °F 63% 30.43 in 10.0 mi Calm Calm - N/A   Clear
7:54 PM 25.0 °F - 17.1 °F 72% 30.44 in 10.0 mi Calm Calm - N/A   Clear
8:54 PM 23.0 °F - 17.1 °F 78% 30.47 in 10.0 mi Calm Calm - N/A   Clear
9:54 PM 21.0 °F - 16.0 °F 81% 30.49 in 10.0 mi Calm Calm - N/A   Clear
10:54 PM 21.0 °F - 17.1 °F 85% 30.50 in 10.0 mi Calm Calm - N/A   Clear